When you browse on this site, cookies collect data to enhance your experience and personalize the content and advertising you see.
Visit our Privacy Policy to learn more. By continuing to use the site, you agree to this use of cookies and data.
  • In Spain
  • List of Countries
  • For 7 days
  • Water Temperature
  • Weather Map
  • Weather Widgets
  • user-avatar
    Login

    Hourly Weather Barnsley

    Today, 4 June, Thursday

    Time Temperature Precipitation Wind Pressure Humidity
    00:00 +9°C° 0 mm 3 mps 746 mmHg 83%
    01:00 +9°C° 0 mm 3 mps 746 mmHg 83%
    02:00 +9°C° 0 mm 3 mps 745 mmHg 83%
    03:00 +8°C° 0 mm 3 mps 744 mmHg 83%
    04:00 +8°C° 0 mm 3 mps 744 mmHg 79%
    05:00 +9°C° 0 mm 3 mps 744 mmHg 75%
    06:00 +9°C° 0 mm 2 mps 744 mmHg 71%
    07:00 +10°C° 0 mm 2 mps 743 mmHg 66%
    08:00 +11°C° 0 mm 3 mps 743 mmHg 61%
    09:00 +13°C° 0 mm 3 mps 743 mmHg 56%
    10:00 +13°C° 0.1 mm 3 mps 742 mmHg 58%
    11:00 +13°C° 0.1 mm 3 mps 742 mmHg 61%
    12:00 +13°C° 0.1 mm 3 mps 741 mmHg 63%
    13:00 +13°C° 0.4 mm 3 mps 741 mmHg 62%
    14:00 +14°C° 0.4 mm 4 mps 740 mmHg 62%
    15:00 +14°C° 0.4 mm 4 mps 740 mmHg 61%
    16:00 +14°C° 0.7 mm 4 mps 739 mmHg 67%
    17:00 +13°C° 0.7 mm 4 mps 739 mmHg 73%
    18:00 +12°C° 0.7 mm 4 mps 739 mmHg 78%
    19:00 +11°C° 0.5 mm 4 mps 738 mmHg 82%
    20:00 +11°C° 0.5 mm 4 mps 738 mmHg 85%
    21:00 +10°C° 0.5 mm 3 mps 738 mmHg 88%
    22:00 +9°C° 0.4 mm 3 mps 738 mmHg 88%
    23:00 +9°C° 0.4 mm 3 mps 737 mmHg 88%

    Tomorrow, 5 June, Friday

    Time Temperature Precipitation Wind Pressure Humidity
    00:00 +8°C° 0.4 mm 3 mps 737 mmHg 88%
    01:00 +8°C° 0.2 mm 2 mps 737 mmHg 88%
    02:00 +8°C° 0.2 mm 2 mps 736 mmHg 87%
    03:00 +8°C° 0.2 mm 2 mps 736 mmHg 87%
    04:00 +8°C° 0.7 mm 2 mps 736 mmHg 86%
    05:00 +8°C° 0.7 mm 2 mps 736 mmHg 85%
    06:00 +8°C° 0.7 mm 2 mps 736 mmHg 84%
    07:00 +7°C° 0.8 mm 3 mps 736 mmHg 84%
    08:00 +7°C° 0.8 mm 3 mps 736 mmHg 84%
    09:00 +6°C° 0.8 mm 4 mps 736 mmHg 83%
    10:00 +8°C° 0.4 mm 5 mps 736 mmHg 73%
    11:00 +9°C° 0.4 mm 6 mps 736 mmHg 63%
    12:00 +11°C° 0.4 mm 7 mps 736 mmHg 53%
    13:00 +11°C° 0.3 mm 8 mps 735 mmHg 54%
    14:00 +11°C° 0.3 mm 8 mps 735 mmHg 54%
    15:00 +11°C° 0.3 mm 9 mps 735 mmHg 55%
    16:00 +11°C° 0.1 mm 9 mps 735 mmHg 56%
    17:00 +10°C° 0.1 mm 9 mps 734 mmHg 56%
    18:00 +10°C° 0.1 mm 9 mps 734 mmHg 57%
    19:00 +8°C° 0 mm 9 mps 734 mmHg 59%
    20:00 +7°C° 0 mm 8 mps 734 mmHg 60%
    21:00 +6°C° 0 mm 8 mps 734 mmHg 62%
    22:00 +6°C° 0.1 mm 9 mps 734 mmHg 67%
    23:00 +6°C° 0.1 mm 9 mps 733 mmHg 72%

    Day after tomorrow, 6 June, Saturday

    Time Temperature Precipitation Wind Pressure Humidity
    00:00 +6°C° 0.1 mm 10 mps 732 mmHg 77%
    01:00 +6°C° 1 mm 9 mps 731 mmHg 80%
    02:00 +6°C° 1 mm 9 mps 731 mmHg 84%
    03:00 +6°C° 1 mm 8 mps 730 mmHg 87%
    04:00 +7°C° 0.4 mm 8 mps 730 mmHg 84%
    05:00 +7°C° 0.4 mm 9 mps 730 mmHg 81%
    06:00 +7°C° 0.4 mm 9 mps 730 mmHg 77%
    07:00 +8°C° 0.2 mm 9 mps 730 mmHg 76%
    08:00 +8°C° 0.2 mm 9 mps 731 mmHg 75%
    09:00 +8°C° 0.2 mm 9 mps 732 mmHg 74%
    10:00 +9°C° 0.5 mm 8 mps 733 mmHg 76%
    11:00 +9°C° 0.5 mm 8 mps 733 mmHg 77%
    12:00 +9°C° 0.5 mm 7 mps 734 mmHg 79%
    13:00 +11°C° 0.3 mm 7 mps 735 mmHg 75%
    14:00 +12°C° 0.3 mm 7 mps 736 mmHg 71%
    15:00 +14°C° 0.3 mm 6 mps 736 mmHg 67%
    16:00 +14°C° 0.2 mm 6 mps 737 mmHg 67%
    17:00 +14°C° 0.2 mm 5 mps 737 mmHg 68%
    18:00 +14°C° 0.2 mm 5 mps 738 mmHg 68%
    19:00 +13°C° 0.1 mm 4 mps 739 mmHg 73%
    20:00 +12°C° 0.1 mm 3 mps 739 mmHg 78%
    21:00 +10°C° 0.1 mm 3 mps 740 mmHg 84%
    22:00 +10°C° 0 mm 3 mps 740 mmHg 85%
    23:00 +10°C° 0 mm 4 mps 740 mmHg 86%

    7 June, Sunday

    Time Temperature Precipitation Wind Pressure Humidity
    00:00 +9°C° 0 mm 5 mps 740 mmHg 88%
    01:00 +9°C° 0 mm 5 mps 740 mmHg 88%
    02:00 +9°C° 0 mm 5 mps 740 mmHg 87%
    03:00 +10°C° 0 mm 4 mps 740 mmHg 87%
    04:00 +10°C° 0.1 mm 4 mps 740 mmHg 86%
    05:00 +11°C° 0.1 mm 4 mps 741 mmHg 86%
    06:00 +11°C° 0.1 mm 3 mps 741 mmHg 86%
    07:00 +11°C° 0.1 mm 3 mps 742 mmHg 84%
    08:00 +12°C° 0.1 mm 3 mps 742 mmHg 82%
    09:00 +12°C° 0.1 mm 3 mps 743 mmHg 80%
    10:00 +12°C° 0.3 mm 3 mps 743 mmHg 81%
    11:00 +12°C° 0.3 mm 3 mps 744 mmHg 82%
    12:00 +12°C° 0.3 mm 3 mps 744 mmHg 84%
    13:00 +12°C° 0.2 mm 3 mps 744 mmHg 83%
    14:00 +12°C° 0.2 mm 3 mps 745 mmHg 82%
    15:00 +12°C° 0.2 mm 4 mps 745 mmHg 82%
    16:00 +11°C° 0.1 mm 4 mps 745 mmHg 82%
    17:00 +11°C° 0.1 mm 4 mps 746 mmHg 83%
    18:00 +10°C° 0.1 mm 4 mps 746 mmHg 83%
    19:00 +10°C° 0.1 mm 4 mps 747 mmHg 84%
    20:00 +10°C° 0.1 mm 4 mps 747 mmHg 84%
    21:00 +8°C° 0.1 mm 4 mps 748 mmHg 85%
    22:00 +8°C° 0 mm 4 mps 748 mmHg 85%
    23:00 +8°C° 0 mm 4 mps 748 mmHg 86%

    8 June, Monday

    Time Temperature Precipitation Wind Pressure Humidity
    00:00 +8°C° 0 mm 4 mps 749 mmHg 86%
    01:00 +8°C° 0 mm 4 mps 749 mmHg 85%
    02:00 +8°C° 0 mm 4 mps 749 mmHg 85%
    03:00 +8°C° 0 mm 4 mps 749 mmHg 84%
    04:00 +8°C° 0 mm 4 mps 749 mmHg 84%
    05:00 +8°C° 0 mm 4 mps 750 mmHg 83%
    06:00 +8°C° 0 mm 4 mps 750 mmHg 83%
    07:00 +8°C° 0 mm 5 mps 750 mmHg 79%
    08:00 +9°C° 0 mm 5 mps 751 mmHg 75%
    09:00 +10°C° 0 mm 5 mps 751 mmHg 71%
    10:00 +10°C° 0 mm 5 mps 751 mmHg 71%
    11:00 +12°C° 0 mm 5 mps 751 mmHg 70%
    12:00 +13°C° 0 mm 5 mps 752 mmHg 70%
    13:00 +13°C° 0 mm 5 mps 752 mmHg 70%
    14:00 +13°C° 0 mm 5 mps 752 mmHg 71%
    15:00 +13°C° 0 mm 5 mps 752 mmHg 72%
    16:00 +13°C° 0 mm 5 mps 752 mmHg 72%
    17:00 +12°C° 0 mm 4 mps 753 mmHg 73%
    18:00 +12°C° 0 mm 4 mps 753 mmHg 73%
    19:00 +11°C° 0 mm 4 mps 753 mmHg 75%
    20:00 +10°C° 0 mm 4 mps 754 mmHg 77%
    21:00 +8°C° 0 mm 4 mps 754 mmHg 79%
    22:00 +8°C° 0 mm 4 mps 754 mmHg 78%
    23:00 +8°C° 0 mm 3 mps 754 mmHg 78%

    9 June, Tuesday

    Time Temperature Precipitation Wind Pressure Humidity
    00:00 +8°C° 0 mm 3 mps 754 mmHg 77%
    01:00 +8°C° 0 mm 3 mps 754 mmHg 78%
    02:00 +8°C° 0 mm 2 mps 754 mmHg 78%
    03:00 +7°C° 0 mm 2 mps 754 mmHg 78%
    04:00 +8°C° 0 mm 2 mps 754 mmHg 77%
    05:00 +8°C° 0 mm 2 mps 754 mmHg 75%
    06:00 +9°C° 0 mm 2 mps 755 mmHg 73%
    07:00 +10°C° 0 mm 3 mps 755 mmHg 71%
    08:00 +11°C° 0 mm 3 mps 755 mmHg 70%
    09:00 +12°C° 0 mm 3 mps 755 mmHg 68%
    10:00 +13°C° 0.1 mm 3 mps 755 mmHg 68%
    11:00 +13°C° 0.1 mm 3 mps 755 mmHg 68%
    12:00 +13°C° 0.1 mm 3 mps 755 mmHg 68%
    13:00 +13°C° 0.1 mm 3 mps 755 mmHg 68%
    14:00 +14°C° 0.1 mm 3 mps 755 mmHg 68%
    15:00 +14°C° 0.1 mm 3 mps 755 mmHg 67%
    16:00 +13°C° 0.1 mm 3 mps 755 mmHg 69%
    17:00 +13°C° 0.1 mm 3 mps 755 mmHg 71%
    18:00 +14°C° 0.1 mm 2 mps 755 mmHg 73%
    19:00 +13°C° 0 mm 2 mps 756 mmHg 76%
    20:00 +12°C° 0 mm 2 mps 756 mmHg 79%
    21:00 +10°C° 0 mm 2 mps 756 mmHg 82%
    22:00 +10°C° 0 mm 1 mps 756 mmHg 83%
    23:00 +9°C° 0 mm 1 mps 756 mmHg 83%
    Show more